Location: Drummondville
(45.8830°N, 72.4830°W)
Time: 11:53:58
(UTC-05:00)

Vanguard 1 - Visible Passes

Search period start: 24 November 2017 00:00
Search period end: 04 December 2017 00:00
Orbit: 650 x 3834 km, 34.2° (Epoch: 23 November)

Date Brightness Start Highest point End Pass type
(mag) Time Alt. Az. Time Alt. Az. Time Alt. Az.
24 Nov 11.4 18:07:23 10° SW 18:10:20 17° SSW 18:12:59 11° SSE visible
25 Nov 11.6 18:28:42 10° SW 18:31:04 14° SSW 18:33:02 11° SSE visible
26 Nov 11.8 18:50:51 10° SSW 18:51:46 11° SSW 18:52:40 10° S visible
27 Nov 11.6 16:49:27 10° WSW 16:53:23 21° SSW 16:56:44 10° SE visible
28 Nov 11.7 17:10:38 10° WSW 17:14:05 18° SSW 17:17:07 10° SSE visible
29 Nov 11.8 17:32:05 10° SW 17:34:44 14° SSW 17:37:08 10° S visible
30 Nov 12.2 17:54:37 10° SW 17:55:19 10° SSW 17:56:01 10° SSW visible
03 Dec 12.1 16:34:28 10° WSW 16:38:20 17° SSW 16:41:28 10° SSE visible
